Total_Precipitation_Accumulation
0.42 0.44 0.43 0.40 0.36 0.36 0.44 0.50 0.72 0.96 1.32 1.70 1.75 1.91 2.10 2.09 1.92 1.76 1.73 1.73 1.64 1.57 1.51 1.44 1.39 1.31 1.25 1.15 1.05 0.93 0.88 0.84 0.87 0.92 0.95 0.93 0.90 0.85 0.80 0.77 0.74 0.75 0.76 0.71
0.38 0.36 0.40 0.42 0.44 0.41 0.45 0.55 0.76 1.07 1.51 1.74 1.83 1.88 2.01 2.11 2.00 1.87 1.87 1.94 1.95 1.94 1.85 1.71 1.59 1.48 1.35 1.21 1.08 0.99 0.97 0.94 0.95 0.94 0.90 0.88 0.86 0.83 0.81 0.77 0.73 0.70 0.69 0.68
0.47 0.34 0.53 0.80 0.63 0.58 0.64 0.74 0.91 1.21 1.43 1.51 1.64 1.83 1.88 1.94 2.04 2.02 2.11 2.24 2.28 2.22 2.11 1.93 1.81 1.71 1.57 1.38 1.22 1.16 1.12 1.04 0.98 0.91 0.83 0.79 0.74 0.72 0.75 0.75 0.70 0.64 0.62 0.65
0.56 0.63 1.10 1.02 0.62 0.61 0.77 0.92 0.96 1.01 1.07 1.29 1.53 1.66 1.70 1.84 2.07 2.19 2.20 2.13 2.15 2.11 2.08 1.98 1.87 1.73 1.57 1.40 1.30 1.20 1.11 1.02 0.93 0.84 0.78 0.77 0.77 0.76 0.73 0.71 0.66 0.65 0.65 0.65
0.74 1.02 1.14 1.07 0.73 0.74 0.92 1.18 0.99 1.00 1.01 1.16 1.26 1.43 1.77 1.85 1.99 2.21 2.08 1.95 2.01 2.06 2.05 2.00 1.90 1.70 1.55 1.43 1.27 1.19 1.09 0.92 0.82 0.76 0.70 0.69 0.70 0.69 0.67 0.68 0.65 0.61 0.60 0.61
0.93 1.25 1.45 1.31 0.77 0.64 0.96 1.71 1.30 1.18 1.16 1.14 1.23 1.61 1.76 1.65 1.65 1.74 1.79 1.83 1.95 2.06 2.11 2.04 1.93 1.64 1.49 1.35 1.16 1.01 0.85 0.73 0.71 0.71 0.65 0.60 0.59 0.60 0.60 0.63 0.63 0.58 0.54 0.57
1.05 1.46 1.55 0.96 0.60 0.70 1.37 1.75 1.41 1.30 1.25 1.24 1.35 1.46 1.36 1.28 1.40 1.55 1.73 1.83 1.87 1.89 1.89 1.87 1.80 1.58 1.43 1.29 1.10 0.88 0.71 0.64 0.66 0.63 0.54 0.50 0.55 0.59 0.56 0.54 0.55 0.53 0.52 0.53
1.21 1.57 1.67 0.79 0.63 0.93 1.14 0.98 0.94 0.95 0.97 1.01 1.06 1.07 1.14 1.17 1.22 1.32 1.49 1.66 1.71 1.72 1.71 1.62 1.52 1.40 1.29 1.15 0.93 0.76 0.66 0.63 0.65 0.62 0.43 0.39 0.48 0.51 0.50 0.53 0.52 0.48 0.48 0.46
1.38 1.62 1.26 0.76 0.73 0.72 0.74 0.77 0.75 0.80 0.78 0.81 0.87 0.94 1.07 1.19 1.24 1.28 1.27 1.38 1.41 1.33 1.24 1.23 1.21 1.13 1.04 0.91 0.76 0.66 0.62 0.63 0.61 0.55 0.45 0.38 0.43 0.46 0.48 0.51 0.48 0.41 0.40 0.39
1.21 1.28 1.02 0.77 0.69 0.65 0.57 0.55 0.61 0.74 0.75 0.70 0.71 0.73 0.84 0.93 1.03 1.11 1.09 1.09 1.10 1.05 0.96 0.92 0.93 0.88 0.79 0.66 0.61 0.61 0.63 0.61 0.60 0.55 0.46 0.38 0.39 0.37 0.40 0.43 0.42 0.38 0.38 0.39
1.30 1.31 1.11 0.91 0.75 0.65 0.59 0.58 0.63 0.66 0.62 0.57 0.53 0.53 0.57 0.68 0.77 0.84 0.83 0.79 0.79 0.83 0.78 0.71 0.68 0.68 0.64 0.55 0.53 0.61 0.60 0.54 0.51 0.45 0.43 0.41 0.33 0.24 0.24 0.26 0.25 0.29 0.34 0.33
1.39 1.19 1.11 0.98 0.76 0.61 0.59 0.58 0.54 0.50 0.46 0.48 0.47 0.46 0.49 0.58 0.65 0.68 0.67 0.65 0.68 0.71 0.68 0.64 0.61 0.58 0.52 0.45 0.44 0.53 0.57 0.54 0.47 0.40 0.39 0.36 0.36 0.28 0.19 0.16 0.15 0.15 0.18 0.18
0.87 0.71 0.72 0.69 0.62 0.61 0.53 0.45 0.44 0.41 0.37 0.39 0.40 0.39 0.41 0.45 0.46 0.49 0.53 0.55 0.61 0.63 0.59 0.54 0.54 0.56 0.53 0.45 0.39 0.42 0.46 0.45 0.41 0.38 0.36 0.34 0.35 0.37 0.35 0.22 0.14 0.14 0.14 0.15
0.61 0.62 0.66 0.56 0.47 0.41 0.35 0.33 0.32 0.30 0.31 0.32 0.33 0.31 0.32 0.36 0.37 0.41 0.47 0.47 0.48 0.45 0.45 0.43 0.40 0.42 0.44 0.38 0.32 0.28 0.28 0.26 0.28 0.32 0.32 0.33 0.31 0.30 0.30 0.31 0.31 0.28 0.21 0.18
0.54 0.50 0.51 0.40 0.30 0.29 0.27 0.24 0.26 0.29 0.28 0.29 0.27 0.24 0.24 0.31 0.36 0.37 0.36 0.36 0.38 0.35 0.34 0.36 0.34 0.32 0.32 0.29 0.24 0.21 0.21 0.23 0.22 0.25 0.29 0.28 0.26 0.26 0.26 0.29 0.31 0.31 0.28 0.23
0.43 0.34 0.27 0.25 0.25 0.25 0.25 0.24 0.24 0.26 0.24 0.26 0.25 0.23 0.22 0.26 0.31 0.33 0.28 0.26 0.30 0.28 0.25 0.28 0.29 0.24 0.24 0.22 0.20 0.19 0.16 0.13 0.14 0.16 0.19 0.21 0.19 0.20 0.21 0.23 0.27 0.30 0.30 0.25
0.40 0.34 0.30 0.26 0.22 0.21 0.23 0.25 0.22 0.19 0.19 0.22 0.23 0.20 0.20 0.24 0.29 0.29 0.28 0.23 0.23 0.20 0.19 0.20 0.21 0.19 0.19 0.18 0.14 0.12 0.11 0.08 0.08 0.09 0.11 0.12 0.12 0.12 0.15 0.18 0.23 0.27 0.25 0.22
0.29 0.25 0.25 0.24 0.17 0.16 0.18 0.18 0.17 0.15 0.14 0.16 0.18 0.19 0.21 0.25 0.26 0.23 0.21 0.17 0.16 0.16 0.16 0.14 0.15 0.17 0.18 0.16 0.11 0.08 0.07 0.07 0.08 0.09 0.08 0.08 0.08 0.10 0.13 0.15 0.17 0.21 0.22 0.22
0.20 0.18 0.18 0.18 0.14 0.14 0.16 0.15 0.12 0.08 0.09 0.14 0.18 0.21 0.23 0.22 0.20 0.17 0.15 0.14 0.14 0.16 0.15 0.13 0.15 0.16 0.17 0.14 0.11 0.08 0.06 0.06 0.09 0.10 0.08 0.08 0.09 0.11 0.12 0.12 0.13 0.15 0.17 0.21
0.15 0.14 0.14 0.14 0.14 0.14 0.12 0.08 0.07 0.07 0.10 0.15 0.15 0.16 0.21 0.19 0.16 0.14 0.14 0.15 0.13 0.11 0.08 0.09 0.12 0.14 0.15 0.14 0.10 0.07 0.06 0.07 0.10 0.11 0.08 0.08 0.08 0.09 0.09 0.10 0.12 0.13 0.16 0.20
0.14 0.13 0.14 0.13 0.12 0.10 0.09 0.08 0.09 0.11 0.12 0.13 0.11 0.11 0.14 0.15 0.13 0.14 0.14 0.15 0.12 0.09 0.07 0.08 0.08 0.08 0.09 0.09 0.08 0.09 0.09 0.09 0.08 0.09 0.09 0.09 0.08 0.08 0.09 0.10 0.10 0.10 0.12 0.14
0.17 0.17 0.14 0.13 0.11 0.10 0.10 0.09 0.09 0.09 0.10 0.10 0.09 0.10 0.12 0.14 0.14 0.14 0.13 0.11 0.10 0.08 0.06 0.06 0.06 0.05 0.05 0.04 0.04 0.06 0.08 0.09 0.08 0.07 0.07 0.08 0.09 0.09 0.08 0.08 0.08 0.08 0.09 0.10
0.20 0.19 0.16 0.13 0.12 0.12 0.12 0.09 0.08 0.09 0.09 0.08 0.08 0.09 0.11 0.14 0.15 0.16 0.13 0.08 0.07 0.08 0.07 0.06 0.05 0.04 0.04 0.03 0.03 0.04 0.04 0.05 0.06 0.06 0.06 0.06 0.06 0.06 0.06 0.05 0.06 0.07 0.07 0.07
0.23 0.23 0.17 0.14 0.14 0.18 0.16 0.13 0.13 0.12 0.11 0.10 0.09 0.09 0.09 0.11 0.13 0.14 0.12 0.11 0.10 0.09 0.06 0.07 0.07 0.05 0.05 0.04 0.04 0.04 0.03 0.03 0.03 0.03 0.04 0.05 0.05 0.05 0.05 0.05 0.05 0.05 0.06 0.06
0.27 0.25 0.19 0.18 0.20 0.20 0.16 0.14 0.13 0.12 0.11 0.09 0.08 0.09 0.08 0.08 0.09 0.10 0.09 0.09 0.10 0.09 0.06 0.06 0.06 0.06 0.05 0.04 0.04 0.04 0.03 0.04 0.04 0.03 0.03 0.04 0.05 0.04 0.04 0.05 0.05 0.04 0.04 0.04
0.37 0.32 0.26 0.23 0.21 0.18 0.16 0.16 0.15 0.14 0.11 0.09 0.09 0.08 0.08 0.07 0.07 0.09 0.07 0.07 0.07 0.07 0.05 0.06 0.06 0.05 0.04 0.04 0.04 0.04 0.04 0.05 0.04 0.04 0.04 0.04 0.04 0.03 0.04 0.04 0.04 0.04 0.04 0.05
0.43 0.36 0.30 0.22 0.17 0.15 0.17 0.19 0.17 0.14 0.14 0.12 0.11 0.09 0.07 0.07 0.07 0.08 0.08 0.07 0.07 0.06 0.05 0.07 0.07 0.06 0.05 0.04 0.04 0.04 0.04 0.04 0.04 0.04 0.04 0.05 0.04 0.04 0.04 0.04 0.04 0.04 0.04 0.05